369  
FPUS82 KCHS 170427  
OPUCHS  
 
TEST   
..KCHS/KSAV GATEWAY OBSERVATIONS
 
TEST  
NATIONAL WEATHER SERVICE CHARLESTON SC  
1200 AM EDT WED JUL 17 2019  
 
NOTE: "FAIR" INDICATES FEW OR NO CLOUDS BELOW 12,000 FEET WITH NO  
SIGNIFICANT WEATHER AND/OR OBSTRUCTIONS TO VISIBILITY.  
 
SCZ050-WAZ558-NCZ071-TXZ119-213-PAZ071-DCZ001-FLZ074-172-MI076-  
NYZ176-178-MAZ016-IL014-TNZ027-NJZ106-GAZ044-MD014-170500-  
   
..GATEWAY OBSERVATIONS FOR CHARLESTON INTERNATIONAL
 
 
 
CITY SKY/WX TMP DP RH WIND PRES REMARKS  
CHAS AIRPORT MOCLDY 80 76 87 S5 30.11S  
SEATTLE MOCLDY 70 55 59 SW10 29.95S  
CHARLOTTE MOCLDY 82 71 69 CALM 30.11S  
DALLAS DFW MOCLDY 87 70 56 S8 29.94R HX 92  
DALLAS LOVE MOCLDY 90 71 53 S13 29.95R HX 96  
PHILLADELPHIA CLOUDY 81 73 76 S6 30.03F  
WASH NATIONAL CLOUDY 83 71 67 SW8 30.03F  
BALTIMORE MOCLDY 78 75 90 W3 30.02F  
MIAMI FAIR 85 73 67 E7 30.13S HX 91  
DETROIT CLOUDY 74 70 87 SW10 29.91F  
NEWARK MOCLDY 82 69 64 SW7 30.00F  
LAGUARDIA FAIR 84 68 58 SW12G20 30.00S  
J F K MOCLDY 78 72 81 SW13 30.03R  
BOSTON LOGAN FAIR 80 66 62 SW12 29.95F  
FT. LAUDERDALE FAIR 84 74 71 E10 30.12F HX 91  
CHICAGO O'HARE CLOUDY 78 71 79 SE5 29.88S  
CHICAGO MIDWAY MOCLDY 79 74 84 SE3 29.87F  
HOUSTON BUSH MOCLDY 83 75 77 S7 30.03R HX 90  
HOUSTON HOBBY MOCLDY 83 76 79 SE7 30.02R HX 91  
NASHVILLE CLOUDY 79 70 74 S13 30.04S  
ATLANTA FAIR 82 69 64 SW5 30.14S  
 

 
 
GAZ044-118-TXZ119-213-NCZ071-DCZ001-MDZ014-506-PAZ021-071-NJZ106-  
NYZ176-178-MAZ106-OHZ011-021-055-MIZ076-KYZ091-ILZ014-INZ047-  
MNZ060-ONZ431-170500-  
   
..GATEWAY OBSERVATIONS FOR SAVANNAH INTERNATIONAL
 
 
 
CITY SKY/WX TMP DP RH WIND PRES REMARKS  
SAVANNAH ARPT MOCLDY 83 78 85 S5 30.12R HX 93  
ATLANTA FAIR 82 69 64 SW5 30.14S  
CHARLOTTE MOCLDY 82 71 69 CALM 30.11S  
DALLAS DFW MOCLDY 87 70 56 S8 29.94R HX 92  
HOUSTON BUSH MOCLDY 83 75 77 S7 30.03R HX 90  
WASH NATIONAL CLOUDY 83 71 67 SW8 30.03F  
WASH DULLES CLOUDY 82 72 71 S5 30.04S  
BALTIMORE MOCLDY 78 75 90 W3 30.02F  
PHILADELPHIA CLOUDY 81 73 76 S6 30.03F  
NEWARK MOCLDY 82 69 64 SW7 30.00F  
LAGUARDIA FAIR 84 68 58 SW12G20 30.00S  
J F K MOCLDY 78 72 81 SW13 30.03R  
BOSTON FAIR 80 66 62 SW12 29.95F  
PITTSBURG LGT RAIN 76 69 79 SW13 30.04R  
AKRON MOCLDY 72 68 87 S7 30.02F  
CLEVELAND CLOUDY 74 70 87 S7 29.99F  
CINCINNATI CLOUDY 73 70 90 S8 29.97S  
COLUMBUS MOCLDY 75 72 91 SE3 29.97F  
DETROIT CLOUDY 74 70 87 SW10 29.91F  
CHICAGO O'HARE CLOUDY 78 71 79 SE5 29.88S  
MINNEAPOLIS FAIR 78 70 76 S5 29.89S  
INDIANAPOLIS LGT RAIN 75 73 93 SW10 29.89F  
TORONTO CANADA MOCLDY 75 72 88 S13 29.91F  
 

 
 
 
CLICK HERE TO GO TO PREVIOUS BULLETINS.

The Nexlab SC Page
The Nexlab GA Page Main Text Page